Aérodrome :
LOGIN :

S'inscrire | Disclaimer

   EN    FR    IT 

 










Légende :    VFR   VFR Marginal   IFR   IFR Intensif   IFR Très Intensif
Visi : 
Plafond : 
>= 8 km
>= 3000ft
5 à 8 km
1000 à 3000 ft
1500m à 5 km
500 à 1000 ft
800 à 1500m
200 à 500 ft
< 800m
< 200 ft
Symboles :   Orages  Brouillard  Fortes neiges  Fortes précipitations  Vent > 20 kt
SIGMETs :   Divers  Orages  Givrage  Turbulence  Onde Orograph.  Cendres Volcan.






- Altitude de l'aérodrome : 697 ft
- Code IATA : PEG


LIRZ - San Edigio Perugia

DERNIER METAR :
  • 141050Z AUTO 06012KT //// // FEW059 12/M01 Q1021

METARs EXPIRÉS :
  • 141020Z AUTO 05010KT 020V080 //// // FEW060 12/M01 Q1021
  • 140950Z AUTO 09010KT //// // FEW057 12/M01 Q1021
  • 140920Z AUTO 06012KT 030V090 //// // FEW059/// 11/M02 Q1021
  • 140850Z AUTO 06009KT //// // NCD 11/M02 Q1021
  • 140820Z AUTO VRB09KT //// // NCD 11/M01 Q1021

TAF TAF LIRZ
Valide du 14 à 06h jusqu'au 15 à 06h UTC


140500Z 1406/1506 03008KT 9999 SCT030
TEMPO 1412/1416 SHRA



MET'MAP, la Météo Aéronautique d'un coup d'oeil ! - Copyright ORBIFLY Décembre 2007 - Disclaimer

ORBIFLY MET'MAP TEAM :

Programmation & Développement : Alexandra Zaïnal
Sur une idée originale de : Baudouin d'Aumeries
Assistance à la programmation : Marc-Olivier Méhu
Soutien technique & logistique : Manuel Goepfert

Contact : metmap@orbifly.com




SOURCES & CREDITS :

   NOAA